Location: Unspecified
(47.9110°N, 14.3980°E)
Time: 21:52:29
(UTC+00:00)

Cosmos 1697 Rocket - Pass Details

Date: 06 August 2020
Orbit: 834 x 842 km, 71.0° (Epoch: 21 September)

Event Time Altitude Azimuth Distance (km) Brightness Sun altitude
Rises 21:24:04 0° 322° (NW) 3,391 7.3 -21.6°
Reaches altitude 10° 21:26:57 10° 309° (NW) 2,452 6.0 -21.8°
Maximum altitude 21:31:16 23° 258° (WSW) 1,699 4.4 -22.2°
Enters shadow 21:33:52 17° 222° (SW) 2,003 4.4 -22.3°
